This is the latest recevied weather packets stored in our database for station/object N2WH. If no packets are shown the sender has not sent any weather packets the latest 10 day(s).
| Time | Temp. | Humidity | Pressure | Rain* | Wind** | Luminosity | Snow |
|---|---|---|---|---|---|---|---|
| 1777552610 | 8.89° C | 99% | 1008.1 hPa | 0 mm | - | 144 W/m² | - |
| 1777552307 | 8.89° C | 99% | 1008.3 hPa | 0 mm | - | 88 W/m² | - |
| 1777552003 | 8.89° C | 99% | 1008.2 hPa | 0 mm | - | 97 W/m² | - |
| 1777551700 | 8.89° C | 99% | 1008.3 hPa | 0 mm | - | 74 W/m² | - |
| 1777551398 | 8.33° C | 99% | 1008.7 hPa | 0 mm | - | 77 W/m² | - |
| 1777551095 | 8.33° C | 99% | 1008.6 hPa | 0 mm | - | 48 W/m² | - |
| 1777550792 | 8.33° C | 99% | 1008.6 hPa | 0 mm | - | 38 W/m² | - |
| 1777550488 | 8.33° C | 99% | 1008.8 hPa | 0 mm | - | 30 W/m² | - |
| 1777550184 | 8.33° C | 99% | 1008.5 hPa | 0 mm | - | 18 W/m² | - |
| 1777549881 | 8.33° C | 99% | 1008.7 hPa | 0 mm | - | 19 W/m² | - |
| 1777549577 | 8.33° C | 99% | 1008.7 hPa | 0 mm | - | 23 W/m² | - |
| 1777549273 | 8.33° C | 99% | 1008.9 hPa | 0 mm | - | 18 W/m² | - |
| 1777548970 | 8.33° C | 99% | 1008.7 hPa | 0 mm | - | 19 W/m² | - |
| 1777548666 | 8.33° C | 99% | 1008.7 hPa | 0 mm | - | 19 W/m² | - |
| 1777548364 | 8.33° C | 99% | 1008.8 hPa | 0 mm | - | 19 W/m² | - |
| 1777548061 | 8.33° C | 99% | 1008.7 hPa | 0 mm | - | 24 W/m² | - |
| 1777547756 | 8.33° C | 99% | 1008.6 hPa | 0 mm | - | 16 W/m² | - |
| 1777547452 | 8.33° C | 99% | 1008.6 hPa | 0 mm | - | 12 W/m² | - |
| 1777547150 | 8.33° C | 99% | 1008.7 hPa | 0 mm | - | 5 W/m² | - |
| 1777546847 | 8.33° C | 99% | 1008.5 hPa | 1.78 mm | - | 6 W/m² | - |
| 1777546544 | 8.33° C | 99% | 1008.6 hPa | 1.78 mm | - | 6 W/m² | - |
| 1777546241 | 8.33° C | 99% | 1008.9 hPa | 0 mm | - | 3 W/m² | - |
| 1777545938 | 8.33° C | 99% | 1008.6 hPa | 0 mm | - | 3 W/m² | - |
| 1777545634 | 8.33° C | 99% | 1008.7 hPa | 0 mm | - | 2 W/m² | - |
| 1777545331 | 8.33° C | 99% | 1008.4 hPa | 0 mm | - | 1 W/m² | - |
* Rain latest hour (hover to see other rain measurements)
** Current wind speed in m/s (hover to see current wind gust speed)